Location: Chaintr�
(47.2251°N, 0.0471°W)
Time: 16:47:12
(UTC+00:00)

Daily predictions for brighter satellites

Satellite Brightness Start Highest point End
(mag) Time Altitude Azimuth Time Altitude Azimuth Time Altitude Azimuth
Cosmos 1538 Rocket 4.1 19:58:03 10° NNW 20:03:25 75° ENE 20:08:42 10° SSE
ISS -3.2 20:03:33 10° SSW 20:06:40 36° SE 20:09:49 10° ENE
Cosmos 1709 Rocket 4.1 20:04:28 10° N 20:10:36 81° W 20:16:43 10° S
Cosmos 2082 Rocket 2.3 20:10:11 10° NNW 20:15:48 66° ENE 20:21:24 10° SE
Cosmos 1680 Rocket 4.4 20:12:06 10° N 20:17:02 36° ENE 20:21:56 10° SE
SPOT 3 Rocket 3.7 20:13:40 10° SSE 20:18:43 60° ENE 20:23:47 10° N
Cosmos 1943 Rocket 3.6 20:15:55 10° SE 20:19:38 18° E 20:23:21 10° ENE
CZ-4C R/B 3.6 20:13:15 10° NW 20:20:22 55° WSW 20:28:32 10° SSE
Cosmos 2074 Rocket 4.3 20:15:40 10° N 20:21:49 51° ENE 20:27:55 10° SSE
Cosmos 2184 Rocket 4.3 20:18:09 10° N 20:24:11 51° ENE 20:30:10 10° SSE
Cosmos 1437 3.9 20:25:30 10° SSW 20:28:10 39° WNW 20:30:53 10° N
Cosmos 44 3.9 20:23:34 10° NNW 20:28:56 56° NE 20:33:48 12° SE
BREEZE-M R/B 2.7 20:27:40 10° W 20:30:13 47° N 20:32:38 10° ENE
NOSS 3-4 (A) 4.0 20:24:46 10° NW 20:31:46 80° SW 20:39:25 11° SSE
NOSS 3-4 (C) 4.0 20:24:53 10° NW 20:31:53 81° SW 20:39:30 11° SSE
USA 305 4.3 20:30:18 10° WNW 20:34:01 30° SW 20:37:45 10° SSE
Ariane Rocket 3.7 20:29:39 10° S 20:34:36 54° W 20:39:35 10° NNW
Iridium 4 Rocket 4.1 20:29:47 10° SSE 20:35:26 51° E 20:41:07 10° NNE
Cosmos 1271 Rocket 2.9 20:32:07 10° S 20:36:02 57° E 20:39:58 10° NNE
Cosmos 1515 Rocket 3.5 20:32:37 10° S 20:37:01 88° E 20:41:25 10° N
Meteor 1-10 Rocket 4.3 20:31:39 10° S 20:37:09 61° E 20:42:47 10° NNE
Cosmos 2278 Rocket 2.7 20:35:04 10° SW 20:40:41 66° WNW 20:46:21 10° NNE
COSMOS 2406 4.1 20:35:19 10° NW 20:40:42 45° WSW 20:46:03 10° S
Cosmos 1536 3.7 20:37:51 10° N 20:41:35 34° ENE 20:44:24 15° SE
Cosmos 1869 Rocket 4.1 20:39:03 10° N 20:43:12 42° ENE 20:46:32 15° SE
Cosmos 990 Rocket 4.3 20:38:57 10° S 20:43:55 46° ESE 20:48:56 10° NNE
Cosmos 2369 Rocket 3.8 20:42:46 13° ESE 20:44:55 16° E 20:48:06 10° ENE
Cosmos 2228 Rocket 3.4 20:40:50 10° SSE 20:45:05 46° E 20:49:24 10° NNE
ATLAS 2AS CENTAUR R/B 2.9 20:37:41 10° NW 20:45:09 79° NE 20:51:07 14° SE
Cosmos 158 Rocket 4.0 20:40:49 10° NNW 20:45:43 78° WSW 20:50:27 11° SSE
USA 215 4.5 20:42:08 10° NE 20:48:14 43° NNW 20:54:20 10° W
Cosmos 1666 2.8 20:44:58 10° NNW 20:48:41 75° W 20:52:23 10° S
Resurs 01 Rocket 2.0 20:45:33 10° S 20:49:57 64° WSW 20:54:23 10° NNW
Cosmos 1898 Rocket 3.9 20:45:10 10° S 20:50:08 42° ESE 20:55:10 10° NE
Tianhe-1 2.2 20:53:02 10° SW 20:55:44 27° S 20:56:46 22° SE
Cosmos 923 Rocket 4.0 20:50:30 10° NNW 20:55:48 89° WSW 21:00:16 15° SSE
Meteor 2-12 Rocket 4.5 20:51:14 10° N 20:57:19 70° E 21:02:32 14° SSE
Terra 3.0 20:55:27 15° ESE 20:58:36 30° ENE 21:02:43 10° N
Cosmos 1812 3.9 20:55:53 10° SSW 20:59:35 44° WNW 21:03:18 10° N
CARTOSAT-1 3.8 20:58:59 18° SE 21:02:02 56° ENE 21:06:16 10° N
SL-24 R/B - RUBIN 2 3.9 20:57:10 10° NW 21:02:40 88° SW 21:06:09 19° SE
Cosmos 1818 3.8 20:58:10 10° NNW 21:03:40 67° NE 21:07:40 19° SE
Cosmos 1900 4.3 21:00:26 10° SSW 21:05:29 68° ESE 21:10:31 10° NE
Cosmos 2084 Rocket 3.5 21:01:25 10° NW 21:05:42 82° NE 21:08:37 21° SE
Cosmos 1833 Rocket 4.3 21:01:32 10° NW 21:06:17 28° WSW 21:11:02 10° SSW
DNEPR-1 R/B 4.2 21:01:43 10° SSW 21:07:37 54° ESE 21:12:30 10° NE
IGS 5A 4.5 21:04:55 10° S 21:08:52 43° W 21:12:51 10° NNW
SJ 16-02 2.9 21:08:40 10° SW 21:12:49 39° WNW 21:17:00 10° N
RESURS DK-1 4.3 21:09:57 10° N 21:13:05 20° NE 21:15:50 12° E
CZ-2C R/B 4.1 21:16:31 10° N 21:21:02 66° WNW 21:25:34 10° SSW
Cosmos 2341 Rocket 4.4 21:16:11 10° N 21:22:25 51° ENE 21:26:26 22° SE
Cosmos 1743 3.0 21:19:32 10° N 21:23:21 53° ENE 21:25:04 29° SE
Meteor 1-27 Rocket 3.8 21:18:21 10° S 21:24:13 90° E 21:30:13 10° NNE
Cosmos 1733 Rocket 3.7 21:22:49 10° N 21:26:56 41° ENE 21:28:47 26° SE
ERBS 2.2 21:24:35 10° NW 21:27:53 77° SW 21:29:01 38° SE
SL-24 DEB 4.2 21:29:48 26° SSE 21:32:21 67° E 21:36:57 10° N
ERS-1 Rocket 2.9 21:29:16 24° SSE 21:32:23 83° ENE 21:37:27 10° NNW
SPOT 5 3.1 21:30:45 23° SSE 21:34:03 85° ENE 21:39:27 10° NNW
Cosmos 2112 Rocket 4.3 21:28:50 10° NNW 21:34:10 66° WSW 21:37:35 22° S
ARIANE 5 R/B 2.9 21:33:19 22° S 21:36:03 62° WSW 21:40:22 10° NNW
USA 245 3.9 21:37:23 20° SW 21:38:05 23° W 21:40:08 10° NW
SL-8 Rocket 4.3 21:32:04 10° N 21:38:16 53° ENE 21:41:47 25° SE
Cosmos 1238 Rocket 3.8 21:33:09 10° N 21:38:46 53° ENE 21:41:08 29° SE
SPOT 1/Viking Rocket 4.5 21:37:09 14° SSW 21:41:24 43° W 21:46:21 10° NNW
Spot 2 Rocket 4.0 21:38:05 19° S 21:41:38 56° W 21:46:36 10° NNW
Cosmos 1937 Rocket 3.4 21:38:08 12° SSW 21:42:59 85° ESE 21:48:12 10° NNE
ISS -3.0 21:40:07 10° W 21:43:25 54° NNW 21:46:45 10° ENE
Cosmos 2297 3.9 21:40:59 10° SSW 21:46:41 76° WNW 21:52:23 10° NNE
Gbstr 26 Del rocket 4.2 21:42:11 10° WNW 21:49:45 66° SW 21:53:23 28° SE
Cosmos 1340 Rocket 3.4 21:48:21 10° NNW 21:52:20 53° W 21:54:15 27° SSW
Okean 1 3.2 21:55:06 41° SSE 21:56:22 70° E 22:00:20 10° NNE
H-2A R/B 3.4 21:53:28 10° NNE 21:57:38 74° ESE 21:59:11 37° S
BREEZE-M DEB (TANK) 4.4 21:50:44 10° W 21:57:40 41° NNW 22:00:15 10° ENE
Cosmos 1515 3.5 21:56:48 40° S 21:58:05 89° E 22:01:54 10° N
Cosmos 1867 3.7 21:56:30 27° S 21:59:10 50° ESE 22:04:28 10° NE
Cosmos 2082 Rocket 4.1 21:55:15 10° NW 21:59:21 21° W 22:03:26 10° SSW
Cosmos 1461 3.3 21:55:17 10° SW 21:59:59 73° NW 22:04:37 10° NE
Lacrosse 5 3.7 22:02:09 15° E 22:02:09 15° E 22:03:42 10° ENE
Cosmos 1943 Rocket 2.3 21:57:08 10° SSW 22:02:45 75° WNW 22:08:21 10° NNE
Okean 1-7 4.1 22:08:56 27° E 22:09:17 28° E 22:12:56 10° NNE
Cosmos 1656 Rocket 4.0 22:08:33 35° SSE 22:10:09 45° ESE 22:15:26 10° NE
ATLAS CENTAUR R/B 1.8 22:11:28 38° E 22:11:28 38° E 22:14:25 10° NE
SL-27 R/B 3.5 22:12:12 10° N 22:15:15 31° ENE 22:15:31 31° ENE
Cosmos 1862 Rocket 3.4 22:14:36 40° SSW 22:16:07 86° W 22:20:28 10° N
Cosmos 1703 Rocket 4.3 22:17:22 34° ESE 22:17:51 36° E 22:21:54 10° NNE
Cosmos 372 Rocket 3.9 22:18:24 25° SSW 22:21:28 80° WNW 22:26:36 10° NNE
Cosmos 1607 3.9 22:22:47 20° SSW 22:27:21 74° ESE 22:33:51 10° NE
Cosmos 2369 Rocket 2.1 22:24:29 23° SSW 22:28:07 86° WNW 22:33:49 10° NNE
BREEZE-M DEB (TANK) 3.9 22:29:09 10° W 22:29:33 14° W 22:29:33 14° W
Cosmos 44 Rocket 3.8 22:29:19 10° NNW 22:34:30 58° NE 22:36:33 34° ESE
ATLAS 2AS CENTAUR R/B 4.1 22:29:39 10° WNW 22:35:17 25° WSW 22:38:33 18° SSW
Terra 2.9 22:34:20 26° SW 22:36:15 36° W 22:40:39 10° NNW
Cosmos 2344 4.4 22:27:33 10° NW 22:36:34 71° NE 22:46:12 19° SE
Cosmos 1975 2.9 22:32:45 10° NNW 22:36:43 66° W 22:37:19 56° SW
Cosmos 2298 Rocket 4.0 22:36:27 44° S 22:38:01 68° ESE 22:43:17 10° NNE
Cosmos 494 Rocket 4.0 22:33:56 10° NNW 22:39:07 68° ENE 22:40:39 44° SE
Cosmos 1821 Rocket 4.3 22:33:57 10° N 22:40:16 57° ENE 22:42:44 36° SE
Cosmos 2366 rocket 4.1 22:35:38 10° NNW 22:41:47 68° W 22:44:34 34° SSW
Meteor 1-18 Rocket 4.5 22:42:36 28° SSW 22:45:32 63° WNW 22:51:04 10° N
Cosmos 2181 Rocket 4.3 22:43:26 26° SSW 22:46:57 61° WNW 22:53:03 10° N
RESURS DK-1 2.6 22:47:21 10° NW 22:51:26 55° WSW 22:51:42 54° SW
BREEZE-M R/B 4.2 22:49:40 10° WNW 22:50:32 20° W 22:50:32 20° W
NOSS 2-1 (C) 4.3 22:52:24 10° NW 22:57:10 68° NE 22:59:58 33° ESE
Okean 3 3.8 22:59:12 49° E 22:59:15 49° E 23:03:19 10° NNE
Cosmos 1356 Rocket 3.6 22:55:03 10° N 22:59:20 61° ENE 22:59:46 57° ESE
Cosmos 1378 3.6 23:00:27 51° ENE 23:00:27 51° ENE 23:03:43 10° NNE
NOSS 2-1 (D) 4.2 22:59:14 10° NW 23:04:02 75° NE 23:06:37 36° SE
Cosmos 2150 Rocket 4.0 23:02:51 41° SSW 23:04:45 80° WNW 23:10:03 10° NNE
COSMOS 2487 3.7 23:02:36 10° N 23:05:34 33° ENE 23:05:34 33° ENE
Cosmos 1805 4.1 23:03:21 10° N 23:07:01 37° ENE 23:07:04 37° ENE
ALOS 2 2.7 23:08:32 56° ESE 23:09:06 62° ENE 23:13:27 10° N
Cosmos 1125 Rocket 3.4 23:07:52 50° SSW 23:09:17 90° WNW 23:14:32 10° NNE
Cosmos 1066 Rocket 4.4 23:09:13 46° SE 23:10:31 57° E 23:15:59 10° NNE
Meteor 1-12 Rocket 4.2 23:04:45 10° N 23:10:37 84° E 23:12:15 49° SSE
Cosmos 2227 Rocket 4.2 23:13:12 10° N 23:17:38 23° NE 23:22:02 10° E
Spot 4 4.0 23:17:18 54° SSW 23:18:09 64° WSW 23:22:59 10° NNW
Cosmos 1300 Rocket 3.8 23:13:54 10° N 23:18:13 53° ENE 23:18:37 51° E
Cosmos 2297 Rocket 3.8 23:14:58 10° N 23:19:51 28° NE 23:23:53 14° ESE
ISS -2.2 23:17:27 10° WNW 23:20:38 37° N 23:22:53 17° ENE
COSMOS 2455 3.7 23:15:48 10° NNW 23:21:35 45° NE 23:25:11 22° ESE
Meteor 1-15 Rocket 4.4 23:17:30 10° N 23:23:14 68° ENE 23:24:55 46° SE
Meteor 2-4 Rocket 4.4 23:21:46 29° SW 23:24:20 47° WNW 23:29:41 10° N
Cosmos 1766 4.0 23:23:18 10° N 23:27:05 43° ENE 23:27:05 43° ENE
Nadezhda 3 Rocket 4.0 23:25:32 43° SSW 23:27:43 80° W 23:33:56 10° N
Sich 1 Rocket 3.4 23:33:48 10° N 23:38:21 84° W 23:38:42 76° SSW
BREEZE-M DEB (TANK) 4.0 23:28:11 10° WNW 23:40:30 51° SW 23:41:14 48° SSW
Lacrosse 5 1.7 23:41:17 52° SW 23:42:33 88° SE 23:47:41 10° NE
Cosmos 1470 4.3 23:43:00 10° NNE 23:46:22 26° ENE 23:46:48 26° E
Cosmos 1605 Rocket 4.2 23:40:22 10° N 23:46:39 65° E 23:48:50 41° SE
Okean 1-7 4.4 23:45:46 26° W 23:46:47 29° WNW 23:50:33 10° N
Okean 2 Rocket 2.9 23:43:50 10° N 23:48:15 86° E 23:48:30 80° SSE
SeaSat 1 3.8 23:44:49 10° NE 23:48:47 24° ESE 23:48:47 24° ESE
ATLAS CENTAUR R/B 3.3 23:47:33 14° W 23:49:51 24° NW 23:53:02 10° NNE
Cosmos 2151 Rocket 3.6 23:46:01 10° N 23:50:33 72° E 23:50:56 67° ESE
